Location: Poughquag
(41.6090°N, 73.6820°W)
Time: 18:55:58
(UTC-05:00)

Hubble Space Telescope - Visible Passes

Search period start: 06 November 2024 00:00
Search period end: 16 November 2024 00:00
Orbit: 501 x 505 km, 28.5° (Epoch: 06 November)

Date Brightness Start Highest point End Pass type
(mag) Time Alt. Az. Time Alt. Az. Time Alt. Az.
13 Nov 3.3 06:00:14 10° SSW 06:01:38 12° S 06:03:00 10° SSE visible
14 Nov 3.3 05:37:45 10° SSW 05:39:13 12° S 05:40:39 10° SSE visible
15 Nov 3.2 05:15:16 10° SSW 05:16:46 12° S 05:18:15 10° SSE visible
